Location: Unspecified
(0.0000°N, 0.0000°E)
Time: 17:46:01
(UTC+00:00)

Hubble Space Telescope - Pass Details

Date: 12 November 2025
Orbit: 482 x 485 km, 28.5° (Epoch: 06 November)

Event Time Altitude Azimuth Distance (km) Brightness Sun altitude
Exits shadow 05:15:21 - 258° (WSW) 2,036 3.2 -6.9°
Reaches altitude 10° 05:16:23 10° 263° (W) 1,648 2.7 -6.6°
Maximum altitude 05:19:53 35° 330° (NNW) 790 1.3 -5.8°
Drops below altitude 10° 05:23:22 10° 37° (NE) 1,644 3.5 -4.9°
Sets 05:25:41 0° 46° (NE) 2,522 4.6 -4.4°
